Location: Unspecified
(0.0000°N, 0.0000°E)
Time: 01:34:33
(UTC+00:00)

Traac - Pass Details

Date: 24 December 2025
Orbit: 951 x 1102 km, 32.4° (Epoch: 19 January)

Event Time Altitude Azimuth Distance (km) Brightness Sun altitude
Exits shadow 03:07:14 41° 146° (SE) 1,481 9.1 -38.8°
Drops below altitude 10° 03:11:41 10° 132° (SE) 2,886 11.2 -37.8°
Sets 03:14:29 0° 130° (SE) 3,861 12.1 -37.2°
